Time,TemperatureF,DewpointF,PressureIn,WindDirection,WindDirectionDegrees,WindSpeedMPH,WindSpeedGustMPH,Humidity,HourlyPrecipIn,Conditions,Clouds,dailyrainin,SoftwareType,DateUTC
2013-04-19 00:00:00,51.0,45.0,30.14,SSW,200,3.0,4.0,80,0.00,,,0.00,Wunderground v.1.13,2013-04-19 04:00:00,
2013-04-19 00:05:00,51.0,45.0,30.14,SSW,194,3.0,3.0,80,0.00,,,0.00,Wunderground v.1.13,2013-04-19 04:05:00,
2013-04-19 00:10:00,51.0,45.0,30.14,South,190,3.0,3.0,80,0.00,,,0.00,Wunderground v.1.13,2013-04-19 04:10:00,
2013-04-19 00:15:00,51.0,45.4,30.14,SW,223,2.0,2.0,81,0.00,,,0.00,Wunderground v.1.13,2013-04-19 04:15:00,
2013-04-19 00:20:00,51.0,45.4,30.14,SSW,208,3.0,3.0,81,0.00,,,0.00,Wunderground v.1.13,2013-04-19 04:20:00,
2013-04-19 00:25:00,51.0,45.4,30.14,SSW,210,2.0,2.0,81,0.00,,,0.00,Wunderground v.1.13,2013-04-19 04:25:00,
2013-04-19 00:30:00,51.1,45.5,30.14,SSW,207,1.0,5.0,81,0.00,,,0.00,Wunderground v.1.13,2013-04-19 04:30:00,
2013-04-19 00:35:00,51.1,45.8,30.14,SSW,209,2.0,4.0,82,0.00,,,0.00,Wunderground v.1.13,2013-04-19 04:35:00,
2013-04-19 00:45:00,51.2,45.9,30.14,SSW,205,2.0,4.0,82,0.00,,,0.00,Wunderground v.1.13,2013-04-19 04:45:00,
2013-04-19 00:50:00,51.1,45.8,30.14,SSW,195,1.0,2.0,82,0.00,,,0.00,Wunderground v.1.13,2013-04-19 04:50:00,
2013-04-19 00:55:00,51.2,46.2,30.14,SSW,205,2.0,2.0,83,0.00,,,0.00,Wunderground v.1.13,2013-04-19 04:55:00,
2013-04-19 01:05:00,51.2,46.2,30.13,SSW,203,2.0,5.0,83,0.00,,,0.00,Wunderground v.1.13,2013-04-19 05:05:00,
2013-04-19 01:15:00,51.3,46.3,30.13,South,180,1.0,1.0,83,0.00,,,0.00,Wunderground v.1.13,2013-04-19 05:15:00,
2013-04-19 01:20:00,51.3,46.6,30.13,South,181,1.0,1.0,84,0.00,,,0.00,Wunderground v.1.13,2013-04-19 05:20:00,
2013-04-19 01:25:00,51.3,46.6,30.13,South,181,1.0,1.0,84,0.00,,,0.00,Wunderground v.1.13,2013-04-19 05:25:00,
2013-04-19 01:35:00,51.4,46.7,30.12,South,181,0.0,2.0,84,0.00,,,0.00,Wunderground v.1.13,2013-04-19 05:35:00,
2013-04-19 01:40:00,51.4,47.0,30.11,South,181,0.0,1.0,85,0.00,,,0.00,Wunderground v.1.13,2013-04-19 05:40:00,
2013-04-19 01:45:00,51.5,47.1,30.11,South,177,1.0,3.0,85,0.00,,,0.00,Wunderground v.1.13,2013-04-19 05:45:00,
2013-04-19 01:50:00,51.5,47.5,30.10,South,177,2.0,2.0,86,0.00,,,0.00,Wunderground v.1.13,2013-04-19 05:50:00,
2013-04-19 02:00:00,51.5,47.5,30.09,South,179,2.0,2.0,86,0.00,,,0.00,Wunderground v.1.13,2013-04-19 06:00:00,
2013-04-19 02:05:00,51.5,47.5,30.09,South,173,2.0,3.0,86,0.00,,,0.00,Wunderground v.1.13,2013-04-19 06:05:00,
2013-04-19 02:10:00,51.5,47.5,30.09,South,173,2.0,2.0,86,0.00,,,0.00,Wunderground v.1.13,2013-04-19 06:10:00,
2013-04-19 02:15:00,51.5,47.8,30.08,South,184,2.0,2.0,87,0.00,,,0.00,Wunderground v.1.13,2013-04-19 06:15:00,
2013-04-19 02:20:00,51.5,47.8,30.08,South,183,2.0,2.0,87,0.00,,,0.00,Wunderground v.1.13,2013-04-19 06:20:00,
2013-04-19 02:25:00,51.5,48.1,30.08,South,187,2.0,5.0,88,0.00,,,0.00,Wunderground v.1.13,2013-04-19 06:25:00,
2013-04-19 02:30:00,51.6,48.2,30.07,South,187,2.0,5.0,88,0.00,,,0.00,Wunderground v.1.13,2013-04-19 06:30:00,
2013-04-19 02:35:00,51.6,48.5,30.07,South,175,2.0,7.0,89,0.00,,,0.00,Wunderground v.1.13,2013-04-19 06:35:00,
2013-04-19 02:45:00,51.7,48.9,30.06,SSW,211,2.0,5.0,90,0.00,,,0.00,Wunderground v.1.13,2013-04-19 06:45:00,
2013-04-19 02:50:00,51.8,49.0,30.06,SSW,211,1.0,5.0,90,0.00,,,0.00,Wunderground v.1.13,2013-04-19 06:50:00,
2013-04-19 02:55:00,51.9,49.1,30.05,SSW,205,2.0,6.0,90,0.00,,,0.00,Wunderground v.1.13,2013-04-19 06:55:00,
2013-04-19 03:05:00,51.9,49.4,30.06,SW,225,2.0,2.0,91,0.00,,,0.00,Wunderground v.1.13,2013-04-19 07:05:00,
2013-04-19 03:10:00,52.0,49.5,30.06,SW,224,1.0,1.0,91,0.00,,,0.00,Wunderground v.1.13,2013-04-19 07:10:00,
2013-04-19 03:15:00,52.1,49.8,30.05,South,182,1.0,5.0,92,0.00,,,0.00,Wunderground v.1.13,2013-04-19 07:15:00,
2013-04-19 03:25:00,52.3,50.0,30.05,SSW,213,2.0,5.0,92,0.00,,,0.00,Wunderground v.1.13,2013-04-19 07:25:00,
2013-04-19 03:30:00,52.6,50.6,30.05,South,169,3.0,3.0,93,0.00,,,0.00,Wunderground v.1.13,2013-04-19 07:30:00,
2013-04-19 03:35:00,52.6,50.6,30.05,South,184,3.0,3.0,93,0.00,,,0.00,Wunderground v.1.13,2013-04-19 07:35:00,
2013-04-19 03:40:00,52.7,50.7,30.05,South,182,1.0,1.0,93,0.00,,,0.00,Wunderground v.1.13,2013-04-19 07:40:00,
2013-04-19 03:50:00,52.8,50.8,30.05,SW,231,1.0,5.0,93,0.00,,,0.00,Wunderground v.1.13,2013-04-19 07:50:00,
2013-04-19 03:55:00,52.9,50.9,30.05,SW,217,2.0,2.0,93,0.00,,,0.00,Wunderground v.1.13,2013-04-19 07:55:00,
2013-04-19 04:00:00,53.0,51.0,30.05,SW,217,2.0,2.0,93,0.00,,,0.00,Wunderground v.1.13,2013-04-19 08:00:00,
2013-04-19 04:05:00,53.0,51.3,30.05,SW,217,1.0,5.0,94,0.00,,,0.00,Wunderground v.1.13,2013-04-19 08:05:00,
2013-04-19 04:15:00,53.1,51.4,30.05,SW,219,2.0,2.0,94,0.00,,,0.00,Wunderground v.1.13,2013-04-19 08:15:00,
2013-04-19 04:20:00,53.2,51.5,30.05,SW,219,1.0,1.0,94,0.00,,,0.00,Wunderground v.1.13,2013-04-19 08:20:00,
2013-04-19 04:30:00,53.2,51.5,30.04,SW,218,0.0,5.0,94,0.00,,,0.00,Wunderground v.1.13,2013-04-19 08:30:00,
2013-04-19 04:35:00,53.3,51.6,30.04,SW,218,1.0,1.0,94,0.00,,,0.00,Wunderground v.1.13,2013-04-19 08:35:00,
2013-04-19 04:40:00,53.3,51.6,30.04,SW,218,0.0,5.0,94,0.00,,,0.00,Wunderground v.1.13,2013-04-19 08:40:00,
2013-04-19 04:45:00,53.3,51.6,30.04,SW,218,0.0,5.0,94,0.00,,,0.00,Wunderground v.1.13,2013-04-19 08:45:00,
2013-04-19 04:55:00,53.5,51.8,30.03,SSW,206,1.0,5.0,94,0.00,,,0.00,Wunderground v.1.13,2013-04-19 08:55:00,
2013-04-19 05:00:00,53.7,52.3,30.03,SSW,204,1.0,5.0,95,0.00,,,0.00,Wunderground v.1.13,2013-04-19 09:00:00,
2013-04-19 05:10:00,53.8,52.4,30.02,SSW,206,2.0,2.0,95,0.00,,,0.00,Wunderground v.1.13,2013-04-19 09:10:00,
2013-04-19 05:15:00,53.9,52.5,30.02,South,184,2.0,2.0,95,0.00,,,0.00,Wunderground v.1.13,2013-04-19 09:15:00,
2013-04-19 05:20:00,54.0,52.6,30.02,South,189,2.0,2.0,95,0.00,,,0.00,Wunderground v.1.13,2013-04-19 09:20:00,
2013-04-19 05:25:00,54.0,52.6,30.01,South,182,2.0,5.0,95,0.00,,,0.00,Wunderground v.1.13,2013-04-19 09:25:00,
2013-04-19 05:35:00,54.2,52.8,30.00,South,172,3.0,5.0,95,0.00,,,0.00,Wunderground v.1.13,2013-04-19 09:35:00,
2013-04-19 05:40:00,54.2,52.8,30.00,SSE,168,3.0,3.0,95,0.00,,,0.00,Wunderground v.1.13,2013-04-19 09:40:00,
2013-04-19 05:45:00,54.2,52.8,30.00,SSE,167,3.0,5.0,95,0.00,,,0.00,Wunderground v.1.13,2013-04-19 09:45:00,
2013-04-19 05:55:00,54.4,53.0,30.00,SW,222,2.0,5.0,95,0.00,,,0.00,Wunderground v.1.13,2013-04-19 09:55:00,
2013-04-19 06:00:00,54.6,53.5,30.01,SW,229,3.0,3.0,96,0.00,,,0.00,Wunderground v.1.13,2013-04-19 10:00:00,
2013-04-19 06:05:00,54.9,53.8,30.00,SW,229,4.0,5.0,96,0.00,,,0.00,Wunderground v.1.13,2013-04-19 10:05:00,
2013-04-19 06:10:00,55.2,54.1,30.01,South,170,5.0,5.0,96,0.00,,,0.00,Wunderground v.1.13,2013-04-19 10:10:00,
2013-04-19 06:20:00,55.4,54.3,30.01,SW,222,5.0,5.0,96,0.00,,,0.00,Wunderground v.1.13,2013-04-19 10:20:00,
2013-04-19 06:25:00,55.6,54.5,30.01,SSW,209,6.0,6.0,96,0.00,,,0.00,Wunderground v.1.13,2013-04-19 10:25:00,
2013-04-19 06:35:00,55.7,54.6,30.01,WSW,237,4.0,5.0,96,0.00,,,0.00,Wunderground v.1.13,2013-04-19 10:35:00,
2013-04-19 06:40:00,55.7,54.6,30.01,SSW,200,5.0,5.0,96,0.00,,,0.00,Wunderground v.1.13,2013-04-19 10:40:00,
2013-04-19 06:45:00,55.7,54.6,30.01,WSW,240,5.0,8.0,96,0.00,,,0.00,Wunderground v.1.13,2013-04-19 10:45:00,
2013-04-19 06:50:00,55.8,54.7,30.01,South,186,5.0,7.0,96,0.00,,,0.00,Wunderground v.1.13,2013-04-19 10:50:00,
2013-04-19 07:00:00,55.9,54.8,30.01,SE,140,5.0,5.0,96,0.00,,,0.00,Wunderground v.1.13,2013-04-19 11:00:00,
2013-04-19 07:05:00,56.0,54.9,30.00,SSW,192,4.0,5.0,96,0.00,,,0.00,Wunderground v.1.13,2013-04-19 11:05:00,
2013-04-19 07:10:00,56.1,55.0,30.00,South,173,4.0,5.0,96,0.00,,,0.00,Wunderground v.1.13,2013-04-19 11:10:00,
2013-04-19 07:20:00,56.2,55.1,30.00,ESE,113,4.0,4.0,96,0.00,,,0.00,Wunderground v.1.13,2013-04-19 11:20:00,
2013-04-19 07:25:00,56.3,55.2,30.00,SSW,199,4.0,4.0,96,0.00,,,0.00,Wunderground v.1.13,2013-04-19 11:25:00,
2013-04-19 07:30:00,56.4,55.3,30.00,South,177,4.0,5.0,96,0.00,,,0.00,Wunderground v.1.13,2013-04-19 11:30:00,
2013-04-19 07:40:00,56.7,55.6,30.00,SSW,207,5.0,6.0,96,0.00,,,0.00,Wunderground v.1.13,2013-04-19 11:40:00,
2013-04-19 07:45:00,56.8,55.7,30.00,SW,221,6.0,6.0,96,0.00,,,0.00,Wunderground v.1.13,2013-04-19 11:45:00,
2013-04-19 07:50:00,56.9,55.8,29.99,ESE,123,5.0,5.0,96,0.00,,,0.00,Wunderground v.1.13,2013-04-19 11:50:00,
2013-04-19 07:55:00,57.1,56.0,29.99,SW,223,3.0,7.0,96,0.00,,,0.00,Wunderground v.1.13,2013-04-19 11:55:00,
2013-04-19 08:05:00,57.3,56.2,29.99,SW,234,4.0,4.0,96,0.00,,,0.00,Wunderground v.1.13,2013-04-19 12:05:00,
2013-04-19 08:10:00,57.5,56.4,29.99,SSE,164,4.0,4.0,96,0.00,,,0.00,Wunderground v.1.13,2013-04-19 12:10:00,
2013-04-19 08:15:00,57.7,56.6,29.99,SW,224,5.0,5.0,96,0.00,,,0.00,Wunderground v.1.13,2013-04-19 12:15:00,
2013-04-19 08:25:00,58.1,57.0,29.99,SSW,202,5.0,5.0,96,0.00,,,0.00,Wunderground v.1.13,2013-04-19 12:25:00,
2013-04-19 08:30:00,58.3,56.9,29.99,WSW,254,5.0,5.0,95,0.00,,,0.00,Wunderground v.1.13,2013-04-19 12:30:00,
2013-04-19 08:35:00,58.5,57.1,29.99,SSW,192,5.0,5.0,95,0.00,,,0.00,Wunderground v.1.13,2013-04-19 12:35:00,
2013-04-19 08:40:00,58.8,57.4,29.99,SW,223,5.0,9.0,95,0.00,,,0.00,Wunderground v.1.13,2013-04-19 12:40:00,
2013-04-19 08:50:00,59.3,57.9,29.99,WSW,252,4.0,14.0,95,0.00,,,0.00,Wunderground v.1.13,2013-04-19 12:50:00,
2013-04-19 08:55:00,59.7,58.0,29.99,SSW,200,5.0,5.0,94,0.00,,,0.00,Wunderground v.1.13,2013-04-19 12:55:00,
2013-04-19 09:00:00,60.1,58.4,29.99,WSW,237,7.0,7.0,94,0.00,,,0.00,Wunderground v.1.13,2013-04-19 13:00:00,
2013-04-19 09:10:00,60.8,58.5,29.99,WSW,241,5.0,5.0,92,0.00,,,0.00,Wunderground v.1.13,2013-04-19 13:10:00,
2013-04-19 09:15:00,61.3,58.7,29.98,SW,217,5.0,10.0,91,0.00,,,0.00,Wunderground v.1.13,2013-04-19 13:15:00,
2013-04-19 09:20:00,61.7,58.7,29.98,SSW,205,5.0,6.0,90,0.00,,,0.00,Wunderground v.1.13,2013-04-19 13:20:00,
2013-04-19 09:30:00,62.2,58.6,29.97,WSW,252,5.0,5.0,88,0.00,,,0.00,Wunderground v.1.13,2013-04-19 13:30:00,
2013-04-19 09:35:00,62.7,58.8,29.97,WSW,237,4.0,4.0,87,0.00,,,0.00,Wunderground v.1.13,2013-04-19 13:35:00,
2013-04-19 09:40:00,62.9,58.6,29.97,South,183,6.0,6.0,86,0.00,,,0.00,Wunderground v.1.13,2013-04-19 13:40:00,
2013-04-19 09:45:00,63.1,58.8,29.96,SSW,213,6.0,7.0,86,0.00,,,0.00,Wunderground v.1.13,2013-04-19 13:45:00,
2013-04-19 09:55:00,63.9,59.3,29.96,WSW,244,6.0,6.0,85,0.00,,,0.00,Wunderground v.1.13,2013-04-19 13:55:00,
2013-04-19 10:00:00,64.1,59.2,29.96,WSW,242,6.0,6.0,84,0.00,,,0.00,Wunderground v.1.13,2013-04-19 14:00:00,
2013-04-19 10:10:00,64.4,59.1,29.96,SSW,202,6.0,6.0,83,0.00,,,0.00,Wunderground v.1.13,2013-04-19 14:10:00,
2013-04-19 10:15:00,64.5,59.2,29.96,SSW,198,5.0,5.0,83,0.00,,,0.00,Wunderground v.1.13,2013-04-19 14:15:00,
2013-04-19 10:20:00,64.6,59.3,29.96,SSE,167,5.0,5.0,83,0.00,,,0.00,Wunderground v.1.13,2013-04-19 14:20:00,
2013-04-19 10:25:00,64.6,59.0,29.96,WSW,256,6.0,12.0,82,0.00,,,0.00,Wunderground v.1.13,2013-04-19 14:25:00,
2013-04-19 10:35:00,64.6,59.0,29.96,SSW,197,5.0,6.0,82,0.00,,,0.00,Wunderground v.1.13,2013-04-19 14:35:00,
2013-04-19 10:40:00,64.6,59.0,29.96,SW,217,4.0,4.0,82,0.00,,,0.00,Wunderground v.1.13,2013-04-19 14:40:00,
2013-04-19 10:45:00,64.6,59.3,29.96,SSE,159,4.0,5.0,83,0.00,,,0.00,Wunderground v.1.13,2013-04-19 14:45:00,
2013-04-19 10:55:00,65.0,59.7,29.95,SW,229,6.0,10.0,83,0.00,,,0.00,Wunderground v.1.13,2013-04-19 14:55:00,
2013-04-19 11:00:00,65.3,59.7,29.95,SE,142,5.0,5.0,82,0.00,,,0.00,Wunderground v.1.13,2013-04-19 15:00:00,
2013-04-19 11:05:00,65.5,59.5,29.95,SW,225,7.0,8.0,81,0.00,,,0.00,Wunderground v.1.13,2013-04-19 15:05:00,
2013-04-19 11:15:00,65.9,59.6,29.94,SSW,207,7.0,11.0,80,0.00,,,0.00,Wunderground v.1.13,2013-04-19 15:15:00,
2013-04-19 11:20:00,66.1,59.7,29.94,South,173,8.0,8.0,80,0.00,,,0.00,Wunderground v.1.13,2013-04-19 15:20:00,
2013-04-19 11:25:00,66.1,59.7,29.93,SSW,206,8.0,8.0,80,0.00,,,0.00,Wunderground v.1.13,2013-04-19 15:25:00,
2013-04-19 11:30:00,65.9,59.6,29.93,SSE,155,7.0,7.0,80,0.00,,,0.00,Wunderground v.1.13,2013-04-19 15:30:00,
2013-04-19 11:40:00,66.5,60.1,29.92,WSW,250,5.0,5.0,80,0.00,,,0.00,Wunderground v.1.13,2013-04-19 15:40:00,
2013-04-19 11:45:00,66.5,59.8,29.92,SE,134,7.0,7.0,79,0.00,,,0.00,Wunderground v.1.13,2013-04-19 15:45:00,
2013-04-19 11:55:00,66.8,60.1,29.91,South,172,6.0,6.0,79,0.00,,,0.00,Wunderground v.1.13,2013-04-19 15:55:00,
2013-04-19 12:00:00,67.2,60.1,29.91,SW,227,6.0,9.0,78,0.00,,,0.00,Wunderground v.1.13,2013-04-19 16:00:00,
2013-04-19 12:05:00,67.6,60.5,29.91,ESE,123,7.0,7.0,78,0.00,,,0.00,Wunderground v.1.13,2013-04-19 16:05:00,
2013-04-19 12:10:00,68.1,61.0,29.91,SSE,159,6.0,6.0,78,0.00,,,0.00,Wunderground v.1.13,2013-04-19 16:10:00,
2013-04-19 12:20:00,69.0,61.1,29.90,SSE,164,6.0,6.0,76,0.00,,,0.00,Wunderground v.1.13,2013-04-19 16:20:00,
2013-04-19 12:25:00,69.5,60.8,29.90,WSW,238,8.0,11.0,74,0.00,,,0.00,Wunderground v.1.13,2013-04-19 16:25:00,
2013-04-19 12:35:00,69.4,60.4,29.89,SSE,150,8.0,8.0,73,0.00,,,0.00,Wunderground v.1.13,2013-04-19 16:35:00,
2013-04-19 12:40:00,69.2,60.6,29.89,South,184,8.0,8.0,74,0.00,,,0.00,Wunderground v.1.13,2013-04-19 16:40:00,
2013-04-19 12:45:00,69.5,60.5,29.89,South,184,8.0,8.0,73,0.00,,,0.00,Wunderground v.1.13,2013-04-19 16:45:00,
2013-04-19 12:50:00,70.0,60.6,29.89,SW,215,9.0,12.0,72,0.00,,,0.00,Wunderground v.1.13,2013-04-19 16:50:00,
2013-04-19 13:00:00,70.2,61.5,29.88,SW,232,8.0,13.0,74,0.00,,,0.00,Wunderground v.1.13,2013-04-19 17:00:00,
2013-04-19 13:05:00,70.4,60.9,29.88,SW,232,7.0,7.0,72,0.00,,,0.00,Wunderground v.1.13,2013-04-19 17:05:00,
2013-04-19 13:15:00,70.6,61.1,29.87,SW,216,8.0,8.0,72,0.00,,,0.00,Wunderground v.1.13,2013-04-19 17:15:00,
2013-04-19 13:20:00,70.8,60.5,29.87,SW,219,8.0,8.0,70,0.00,,,0.00,Wunderground v.1.13,2013-04-19 17:20:00,
2013-04-19 13:25:00,71.4,61.5,29.86,SW,230,7.0,15.0,71,0.00,,,0.00,Wunderground v.1.13,2013-04-19 17:25:00,
2013-04-19 13:30:00,71.5,60.8,29.86,SW,224,6.0,7.0,69,0.00,,,0.00,Wunderground v.1.13,2013-04-19 17:30:00,
2013-04-19 13:40:00,71.1,60.8,29.86,SSW,201,6.0,6.0,70,0.00,,,0.00,Wunderground v.1.13,2013-04-19 17:40:00,
2013-04-19 13:45:00,71.0,60.7,29.86,South,175,8.0,8.0,70,0.00,,,0.00,Wunderground v.1.13,2013-04-19 17:45:00,
2013-04-19 13:55:00,72.3,61.1,29.84,SSW,193,8.0,10.0,68,0.00,,,0.00,Wunderground v.1.13,2013-04-19 17:55:00,
2013-04-19 14:00:00,72.9,60.9,29.84,SSE,157,10.0,10.0,66,0.00,,,0.00,Wunderground v.1.13,2013-04-19 18:00:00,
2013-04-19 14:05:00,73.4,61.3,29.83,South,183,9.0,10.0,66,0.00,,,0.00,Wunderground v.1.13,2013-04-19 18:05:00,
2013-04-19 14:10:00,73.6,60.7,29.84,South,186,8.0,13.0,64,0.00,,,0.00,Wunderground v.1.13,2013-04-19 18:10:00,
2013-04-19 14:20:00,72.8,60.8,29.84,SW,217,7.0,7.0,66,0.00,,,0.00,Wunderground v.1.13,2013-04-19 18:20:00,
2013-04-19 14:25:00,72.3,60.7,29.83,SW,217,7.0,7.0,67,0.00,,,0.00,Wunderground v.1.13,2013-04-19 18:25:00,
2013-04-19 14:30:00,72.1,61.0,29.83,SE,141,8.0,8.0,68,0.00,,,0.00,Wunderground v.1.13,2013-04-19 18:30:00,
2013-04-19 14:35:00,72.1,61.0,29.83,SSW,213,8.0,12.0,68,0.00,,,0.00,Wunderground v.1.13,2013-04-19 18:35:00,
2013-04-19 14:45:00,72.3,61.1,29.82,SSW,208,8.0,8.0,68,0.00,,,0.00,Wunderground v.1.13,2013-04-19 18:45:00,
2013-04-19 14:50:00,72.1,61.0,29.82,SSW,201,7.0,7.0,68,0.00,,,0.00,Wunderground v.1.13,2013-04-19 18:50:00,
2013-04-19 15:00:00,71.5,60.4,29.82,SSE,148,7.0,7.0,68,0.00,,,0.00,Wunderground v.1.13,2013-04-19 19:00:00,
2013-04-19 15:05:00,71.1,60.4,29.82,SSE,149,8.0,11.0,69,0.00,,,0.00,Wunderground v.1.13,2013-04-19 19:05:00,
2013-04-19 15:10:00,70.7,60.4,29.82,SSW,200,7.0,13.0,70,0.00,,,0.00,Wunderground v.1.13,2013-04-19 19:10:00,
2013-04-19 15:20:00,70.3,60.4,29.81,SW,224,8.0,8.0,71,0.00,,,0.00,Wunderground v.1.13,2013-04-19 19:20:00,
2013-04-19 15:25:00,70.0,60.6,29.81,SSE,159,7.0,7.0,72,0.00,,,0.00,Wunderground v.1.13,2013-04-19 19:25:00,
2013-04-19 15:30:00,69.7,61.0,29.81,SW,221,7.0,7.0,74,0.00,,,0.00,Wunderground v.1.13,2013-04-19 19:30:00,
2013-04-19 15:40:00,69.2,61.3,29.81,SW,225,7.0,7.0,76,0.00,,,0.00,Wunderground v.1.13,2013-04-19 19:40:00,
2013-04-19 15:45:00,68.8,62.0,29.81,SW,233,8.0,8.0,79,0.00,,,0.00,Wunderground v.1.13,2013-04-19 19:45:00,
2013-04-19 15:50:00,68.2,61.8,29.81,WSW,238,10.0,10.0,80,0.00,,,0.00,Wunderground v.1.13,2013-04-19 19:50:00,
2013-04-19 15:55:00,67.8,61.8,29.81,SSE,159,8.0,8.0,81,0.00,,,0.00,Wunderground v.1.13,2013-04-19 19:55:00,
2013-04-19 16:05:00,67.4,61.4,29.80,South,180,6.0,6.0,81,0.00,,,0.00,Wunderground v.1.13,2013-04-19 20:05:00,
2013-04-19 16:10:00,67.3,62.0,29.80,South,189,7.0,7.0,83,0.00,,,0.00,Wunderground v.1.13,2013-04-19 20:10:00,
2013-04-19 16:15:00,67.0,62.0,29.80,SW,224,7.0,13.0,84,0.00,,,0.00,Wunderground v.1.13,2013-04-19 20:15:00,
2013-04-19 16:25:00,66.5,62.5,29.79,SSW,203,4.0,5.0,87,0.00,,,0.00,Wunderground v.1.13,2013-04-19 20:25:00,
2013-04-19 16:30:00,66.2,62.2,29.79,SSW,194,4.0,4.0,87,0.00,,,0.00,Wunderground v.1.13,2013-04-19 20:30:00,
2013-04-19 16:35:00,65.9,62.2,29.79,SW,226,5.0,8.0,88,0.00,,,0.00,Wunderground v.1.13,2013-04-19 20:35:00,
2013-04-19 16:45:00,65.4,61.8,29.78,SSW,210,7.0,7.0,88,0.00,,,0.00,Wunderground v.1.13,2013-04-19 20:45:00,
2013-04-19 16:50:00,65.4,62.1,29.77,SW,219,6.0,6.0,89,0.00,,,0.00,Wunderground v.1.13,2013-04-19 20:50:00,
2013-04-19 16:55:00,65.5,62.2,29.77,SSW,213,7.0,7.0,89,0.00,,,0.00,Wunderground v.1.13,2013-04-19 20:55:00,
2013-04-19 17:00:00,65.6,61.9,29.77,SSE,157,8.0,11.0,88,0.00,,,0.00,Wunderground v.1.13,2013-04-19 21:00:00,
2013-04-19 17:10:00,65.7,62.0,29.77,South,181,7.0,11.0,88,0.00,,,0.00,Wunderground v.1.13,2013-04-19 21:10:00,
2013-04-19 17:15:00,65.8,62.1,29.76,North,11,6.0,6.0,88,0.00,,,0.00,Wunderground v.1.13,2013-04-19 21:15:00,
2013-04-19 17:20:00,65.8,62.1,29.76,WSW,256,7.0,8.0,88,0.00,,,0.00,Wunderground v.1.13,2013-04-19 21:20:00,
2013-04-19 17:30:00,65.8,62.1,29.75,South,178,8.0,8.0,88,0.00,,,0.00,Wunderground v.1.13,2013-04-19 21:30:00,
2013-04-19 17:35:00,65.7,62.0,29.75,SSW,205,6.0,11.0,88,0.00,,,0.00,Wunderground v.1.13,2013-04-19 21:35:00,
2013-04-19 17:40:00,65.7,62.0,29.75,SW,218,7.0,7.0,88,0.00,,,0.00,Wunderground v.1.13,2013-04-19 21:40:00,
2013-04-19 17:45:00,65.6,61.9,29.74,SSW,207,8.0,8.0,88,0.00,,,0.00,Wunderground v.1.13,2013-04-19 21:45:00,
2013-04-19 17:55:00,65.4,62.1,29.73,SSE,163,7.0,7.0,89,0.00,,,0.00,Wunderground v.1.13,2013-04-19 21:55:00,
2013-04-19 18:00:00,65.4,62.1,29.73,South,187,8.0,10.0,89,0.00,,,0.00,Wunderground v.1.13,2013-04-19 22:00:00,
2013-04-19 18:05:00,65.4,62.1,29.73,South,185,8.0,14.0,89,0.00,,,0.00,Wunderground v.1.13,2013-04-19 22:05:00,
2013-04-19 18:15:00,65.2,61.9,29.72,SSE,168,7.0,9.0,89,0.00,,,0.00,Wunderground v.1.13,2013-04-19 22:15:00,
2013-04-19 18:20:00,65.0,61.7,29.72,South,178,8.0,8.0,89,0.00,,,0.00,Wunderground v.1.13,2013-04-19 22:20:00,
2013-04-19 18:25:00,65.0,61.7,29.73,SW,225,6.0,7.0,89,0.00,,,0.00,Wunderground v.1.13,2013-04-19 22:25:00,
2013-04-19 18:35:00,64.9,61.6,29.73,SSE,168,6.0,12.0,89,0.00,,,0.00,Wunderground v.1.13,2013-04-19 22:35:00,
2013-04-19 18:40:00,64.8,61.5,29.74,NNW,346,8.0,8.0,89,0.00,,,0.00,Wunderground v.1.13,2013-04-19 22:40:00,
2013-04-19 18:45:00,64.8,61.8,29.73,SSW,198,7.0,7.0,90,0.00,,,0.00,Wunderground v.1.13,2013-04-19 22:45:00,
2013-04-19 18:50:00,64.7,61.7,29.72,WSW,249,7.0,19.0,90,0.00,,,0.00,Wunderground v.1.13,2013-04-19 22:50:00,
2013-04-19 19:00:00,64.6,61.6,29.72,SSE,158,7.0,7.0,90,0.00,,,0.00,Wunderground v.1.13,2013-04-19 23:00:00,
2013-04-19 19:05:00,64.4,61.1,29.72,South,178,7.0,7.0,89,0.00,,,0.00,Wunderground v.1.13,2013-04-19 23:05:00,
2013-04-19 19:10:00,64.2,60.9,29.72,South,188,8.0,8.0,89,0.00,,,0.00,Wunderground v.1.13,2013-04-19 23:10:00,
2013-04-19 19:20:00,63.8,60.8,29.72,WSW,249,9.0,11.0,90,0.00,,,0.00,Wunderground v.1.13,2013-04-19 23:20:00,
2013-04-19 19:25:00,63.7,60.7,29.73,South,183,8.0,8.0,90,0.00,,,0.00,Wunderground v.1.13,2013-04-19 23:25:00,
2013-04-19 19:30:00,63.5,60.5,29.72,SW,226,8.0,14.0,90,0.00,,,0.00,Wunderground v.1.13,2013-04-19 23:30:00,
2013-04-19 19:40:00,63.2,60.2,29.73,SSW,203,8.0,8.0,90,0.00,,,0.00,Wunderground v.1.13,2013-04-19 23:40:00,
2013-04-19 19:45:00,63.0,60.3,29.73,South,174,7.0,12.0,91,0.00,,,0.00,Wunderground v.1.13,2013-04-19 23:45:00,
2013-04-19 19:50:00,62.9,60.2,29.73,South,184,7.0,7.0,91,0.00,,,0.00,Wunderground v.1.13,2013-04-19 23:50:00,
2013-04-19 20:00:00,62.7,60.0,29.73,SSW,196,10.0,10.0,91,0.00,,,0.00,Wunderground v.1.13,2013-04-20 00:00:00,
2013-04-19 20:05:00,62.7,60.0,29.72,SSE,160,8.0,8.0,91,0.00,,,0.00,Wunderground v.1.13,2013-04-20 00:05:00,
2013-04-19 20:10:00,62.6,59.9,29.72,SW,214,5.0,6.0,91,0.00,,,0.00,Wunderground v.1.13,2013-04-20 00:10:00,
2013-04-19 20:15:00,62.6,60.2,29.73,SSW,202,7.0,7.0,92,0.00,,,0.00,Wunderground v.1.13,2013-04-20 00:15:00,
2013-04-19 20:25:00,62.6,60.2,29.72,South,183,7.0,7.0,92,0.00,,,0.00,Wunderground v.1.13,2013-04-20 00:25:00,
2013-04-19 20:30:00,62.6,60.2,29.72,SSW,196,6.0,11.0,92,0.00,,,0.00,Wunderground v.1.13,2013-04-20 00:30:00,
2013-04-19 20:35:00,62.6,60.2,29.72,WSW,242,7.0,13.0,92,0.00,,,0.00,Wunderground v.1.13,2013-04-20 00:35:00,
2013-04-19 20:45:00,62.5,60.4,29.71,South,178,8.0,8.0,93,0.00,,,0.00,Wunderground v.1.13,2013-04-20 00:45:00,
2013-04-19 20:50:00,62.4,60.3,29.71,SW,224,6.0,6.0,93,0.00,,,0.00,Wunderground v.1.13,2013-04-20 00:50:00,
2013-04-19 20:55:00,62.4,60.3,29.71,SSE,155,6.0,6.0,93,0.00,,,0.00,Wunderground v.1.13,2013-04-20 00:55:00,
2013-04-19 21:05:00,62.4,60.3,29.71,South,184,5.0,5.0,93,0.00,,,0.00,Wunderground v.1.13,2013-04-20 01:05:00,
2013-04-19 21:10:00,62.4,60.3,29.70,SE,137,5.0,5.0,93,0.00,,,0.00,Wunderground v.1.13,2013-04-20 01:10:00,
2013-04-19 21:15:00,62.3,60.2,29.69,SSE,167,5.0,6.0,93,0.00,,,0.00,Wunderground v.1.13,2013-04-20 01:15:00,
2013-04-19 21:20:00,62.4,60.3,29.70,SSW,202,6.0,6.0,93,0.00,,,0.00,Wunderground v.1.13,2013-04-20 01:20:00,
2013-04-19 21:30:00,62.3,60.2,29.71,SW,231,6.0,11.0,93,0.00,,,0.00,Wunderground v.1.13,2013-04-20 01:30:00,
2013-04-19 21:35:00,62.4,60.3,29.70,South,178,6.0,6.0,93,0.00,,,0.00,Wunderground v.1.13,2013-04-20 01:35:00,
2013-04-19 21:40:00,62.4,60.7,29.70,SSE,159,6.0,6.0,94,0.00,,,0.00,Wunderground v.1.13,2013-04-20 01:40:00,
2013-04-19 21:50:00,62.5,60.7,29.70,SSW,198,6.0,7.0,94,0.00,,,0.00,Wunderground v.1.13,2013-04-20 01:50:00,
2013-04-19 21:55:00,62.5,60.7,29.70,SW,234,6.0,6.0,94,0.00,,,0.00,Wunderground v.1.13,2013-04-20 01:55:00,
2013-04-19 22:00:00,62.6,60.8,29.69,SSW,213,6.0,6.0,94,0.00,,,0.00,Wunderground v.1.13,2013-04-20 02:00:00,
2013-04-19 22:05:00,62.7,60.9,29.68,SW,230,5.0,11.0,94,0.00,,,0.00,Wunderground v.1.13,2013-04-20 02:05:00,
2013-04-19 22:15:00,62.9,61.1,29.68,SW,234,8.0,8.0,94,0.00,,,0.00,Wunderground v.1.13,2013-04-20 02:15:00,
2013-04-19 22:20:00,63.0,61.2,29.68,SSW,196,8.0,11.0,94,0.00,,,0.00,Wunderground v.1.13,2013-04-20 02:20:00,
2013-04-19 22:30:00,63.3,61.5,29.68,SSW,213,8.0,9.0,94,0.00,,,0.00,Wunderground v.1.13,2013-04-20 02:30:00,
2013-04-19 22:35:00,63.4,61.6,29.67,SW,227,7.0,7.0,94,0.00,,,0.00,Wunderground v.1.13,2013-04-20 02:35:00,
2013-04-19 22:40:00,63.5,61.7,29.67,South,176,8.0,8.0,94,0.00,,,0.00,Wunderground v.1.13,2013-04-20 02:40:00,
2013-04-19 22:45:00,63.6,61.8,29.67,SSW,207,8.0,8.0,94,0.00,,,0.00,Wunderground v.1.13,2013-04-20 02:45:00,
2013-04-19 22:55:00,63.8,61.7,29.68,WSW,240,7.0,7.0,93,0.00,,,0.00,Wunderground v.1.13,2013-04-20 02:55:00,
2013-04-19 23:00:00,64.0,61.9,29.67,SW,229,9.0,9.0,93,0.00,,,0.00,Wunderground v.1.13,2013-04-20 03:00:00,
2013-04-19 23:05:00,64.1,62.0,29.67,WSW,238,9.0,9.0,93,0.00,,,0.00,Wunderground v.1.13,2013-04-20 03:05:00,
2013-04-19 23:10:00,64.1,62.0,29.66,South,173,8.0,8.0,93,0.00,,,0.00,Wunderground v.1.13,2013-04-20 03:10:00,
2013-04-19 23:20:00,64.2,61.8,29.66,ENE,63,10.0,12.0,92,0.00,,,0.00,Wunderground v.1.13,2013-04-20 03:20:00,
2013-04-19 23:25:00,64.2,61.8,29.65,SSE,149,9.0,16.0,92,0.00,,,0.00,Wunderground v.1.13,2013-04-20 03:25:00,
2013-04-19 23:30:00,64.2,61.8,29.65,SW,217,8.0,8.0,92,0.00,,,0.00,Wunderground v.1.13,2013-04-20 03:30:00,
2013-04-19 23:40:00,64.1,61.7,29.65,South,182,8.0,8.0,92,0.00,,,0.00,Wunderground v.1.13,2013-04-20 03:40:00,
2013-04-19 23:45:00,64.1,61.7,29.65,SSE,161,9.0,13.0,92,0.00,,,0.00,Wunderground v.1.13,2013-04-20 03:45:00,
2013-04-19 23:50:00,64.1,61.7,29.65,ESE,111,9.0,9.0,92,0.00,,,0.00,Wunderground v.1.13,2013-04-20 03:50:00,